TimeCST,TemperatureF,Dew PointF,Humidity,Sea Level PressureIn,VisibilityMPH,Wind Direction,Wind SpeedMPH,Gust SpeedMPH,PrecipitationIn,Events,Conditions,WindDirDegrees,DateUTC
12:53 AM,60.1,53.1,78,30.02,10.0,South,12.7,-,N/A,,Overcast,180,2012-12-01 06:53:00
1:53 AM,59.0,53.1,81,30.01,9.0,South,12.7,23.0,N/A,,Overcast,170,2012-12-01 07:53:00
2:53 AM,57.9,53.1,84,29.99,8.0,South,12.7,-,N/A,,Mostly Cloudy,170,2012-12-01 08:53:00
3:26 AM,57.2,53.6,88,30.00,8.0,South,10.4,-,N/A,,Scattered Clouds,180,2012-12-01 09:26:00
3:53 AM,57.0,53.1,87,29.98,7.0,South,10.4,-,N/A,,Partly Cloudy,170,2012-12-01 09:53:00
4:11 AM,57.2,53.6,88,29.99,7.0,South,9.2,-,N/A,,Mostly Cloudy,170,2012-12-01 10:11:00
4:53 AM,59.0,55.0,87,29.97,9.0,South,13.8,-,N/A,,Overcast,170,2012-12-01 10:53:00
5:53 AM,60.1,55.0,83,29.96,10.0,South,12.7,-,N/A,,Overcast,170,2012-12-01 11:53:00
6:53 AM,61.0,55.9,83,29.94,10.0,South,15.0,-,N/A,,Overcast,170,2012-12-01 12:53:00
7:53 AM,63.0,57.0,81,29.94,10.0,South,15.0,28.8,N/A,,Overcast,180,2012-12-01 13:53:00
8:53 AM,64.0,57.0,78,29.93,10.0,South,19.6,32.2,N/A,,Overcast,180,2012-12-01 14:53:00
9:53 AM,64.9,57.9,78,29.92,10.0,South,24.2,32.2,N/A,,Overcast,180,2012-12-01 15:53:00
10:53 AM,66.9,57.0,70,29.90,10.0,South,26.5,33.4,N/A,,Mostly Cloudy,180,2012-12-01 16:53:00
11:53 AM,68.0,57.0,68,29.87,10.0,South,28.8,40.3,N/A,,Mostly Cloudy,190,2012-12-01 17:53:00
12:53 PM,69.1,57.0,65,29.83,10.0,South,27.6,41.4,N/A,,Mostly Cloudy,180,2012-12-01 18:53:00
1:53 PM,70.0,57.0,63,29.83,10.0,South,19.6,35.7,N/A,,Overcast,190,2012-12-01 19:53:00
2:53 PM,72.0,57.0,59,29.81,10.0,South,23.0,33.4,N/A,,Scattered Clouds,190,2012-12-01 20:53:00
3:53 PM,70.0,57.0,63,29.82,10.0,SSW,18.4,27.6,N/A,,Mostly Cloudy,200,2012-12-01 21:53:00
4:53 PM,69.1,57.0,65,29.83,10.0,South,13.8,-,N/A,,Overcast,190,2012-12-01 22:53:00
5:53 PM,69.1,57.9,68,29.86,10.0,South,17.3,-,N/A,,Overcast,180,2012-12-01 23:53:00
6:53 PM,69.1,57.9,68,29.87,10.0,South,13.8,-,N/A,,Mostly Cloudy,190,2012-12-02 00:53:00
7:53 PM,66.9,57.9,73,29.88,10.0,South,9.2,19.6,N/A,,Mostly Cloudy,190,2012-12-02 01:53:00
8:53 PM,66.0,57.9,75,29.89,10.0,SSW,11.5,24.2,N/A,,Scattered Clouds,210,2012-12-02 02:53:00
9:53 PM,66.9,57.9,73,29.91,10.0,North,-9999.0,-,N/A,,Scattered Clouds,0,2012-12-02 03:53:00
10:53 PM,66.0,59.0,78,29.90,10.0,WSW,15.0,29.9,N/A,,Partly Cloudy,250,2012-12-02 04:53:00
11:53 PM,64.0,57.9,80,29.92,10.0,North,-9999.0,-,N/A,,Clear,0,2012-12-02 05:53:00